Regional Weather Roundup
Issued by NWS Raleigh/Durham, NC

Home | Current Version | Previous Version | Text Only | Print | Product List | Glossary On
Versions: 1 2 3 4 5 6 7 8 9 10 11 12 13 14 15 16 17 18 19 20 21 22 23 24 25 26 27 28 29 30 31 32 33 34 35 36 37 38 39 40 41 42 43 44 45 46 47 48 49 50
090
ASUS42 KRAH 201010
RWRRAH
NORTH CAROLINA WEATHER ROUNDUP
NATIONAL WEATHER SERVICE RALEIGH NC
600 AM EDT TUE APR 20 2021

NOTE: "FAIR" INDICATES FEW OR NO CLOUDS BELOW 12,000 FEET WITH NO
SIGNIFICANT WEATHER AND/OR OBSTRUCTIONS TO VISIBILITY.

NCZ001-053-055-056-065-067-201100-
WESTERN NORTH CAROLINA

CITY           SKY/WX    TMP DP  RH WIND       PRES   REMARKS
ASHEVILLE      MOCLDY    41  38  89 CALM      30.05R
JEFFERSON      PTCLDY    41  33  75 CALM      30.04R
MORGANTON      MOCLDY    38  37  94 CALM      30.07R
HICKORY        MOCLDY    46  37  71 CALM      30.02S
WILKESBORO     NOT AVBL
RUTHERFORDTON  MOCLDY    41  41 100 CALM      30.03F
MOUNT AIRY     NOT AVBL
BOONE            N/A     34  34  99 CALM      30.05S
$$

NCZ021-022-025-041-071-084-088-201100-
CENTRAL NORTH CAROLINA

CITY           SKY/WX    TMP DP  RH WIND       PRES   REMARKS
CHARLOTTE      MOCLDY    43  41  93 N3        30.03R
GREENSBORO     MOCLDY    44  39  82 CALM      30.01R
WINSTON-SALEM  PTCLDY    44  38  79 CALM      30.03R
RALEIGH-DURHAM MOCLDY    43  42  97 CALM      30.03R
FORT BRAGG     PTCLDY    44  44  99 CALM      30.01R
FAYETTEVILLE   PTCLDY    46  41  82 CALM      30.02R
BURLINGTON     PTCLDY    42  39  89 CALM      30.02R
ROXBORO        CLEAR     37  37 100 CALM      30.05R FOG
HENDERSON      CLEAR     38  38  99 SW5       30.02R WCI  35
LOUISBURG      CLEAR     37  37 100 CALM      30.05R
LAURINBURG     PTCLDY    44  40  85 CALM      30.03R
$$

NCZ011-015-027-028-043-044-047-080-103-201100-
NORTHEASTERN NORTH CAROLINA

CITY           SKY/WX    TMP DP  RH WIND       PRES   REMARKS
ROCKY MT-WILSO PTCLDY    42  40  92 CALM      30.03R FOG
GREENVILLE     CLEAR     43  43 100 CALM      30.05R
WASHINGTON     CLEAR     43  41  95 CALM      30.04R
ELIZABETH CITY FOG       45  43  93 CALM      30.03R VSB 1/4
MANTEO           N/A     46  45  99 CALM      30.03R
CAPE HATTERAS  CLEAR     52  49  89 CALM      30.03R
$$

NCZ078-087-090-091-093-098-101-201100-
SOUTHEASTERN NORTH CAROLINA

CITY           SKY/WX    TMP DP  RH WIND       PRES   REMARKS
GOLDSBORO      PTCLDY    43  42  95 E3        30.01R
KINSTON        PTCLDY    41  41  99 CALM      30.04R
KENANSVILLE    NOT AVBL
NEW BERN       FOG       43  42  97 CALM      30.04S VSB 1/4
CHERRY POINT   CLEAR     43  43 100 CALM      30.04R
BEAUFORT       CLEAR     47  45  93 CALM      30.03R
JACKSONVILLE   CLEAR     44  43  96 CALM      30.03R
WILMINGTON       N/A     45  43  93 NE3       30.02R
$$





USA.gov is the U.S. government's official web portal to all federal, state and local government web resources and services.